Location: El Bakhil
(32.7726°N, 5.5387°W)
Time: 12:11:28
(UTC+00:00)

Cosmos 1500 - Pass Details

Date: 03 March 2021
Orbit: 499 x 517 km, 82.5° (Epoch: 15 April)

Event Time Altitude Azimuth Distance (km) Brightness Sun altitude
Rises 18:43:40 0° 162° (SSE) 2,578 6.6 -5.5°
Reaches altitude 10° 18:45:58 10° 151° (SSE) 1,697 5.6 -6.0°
Maximum altitude 18:49:10 28° 91° (E) 966 4.0 -6.7°
Drops below altitude 10° 18:52:23 10° 31° (NNE) 1,705 5.5 -7.4°
Sets 18:54:41 0° 20° (NNE) 2,593 6.5 -7.9°
